Location: Gandikunta
(16.3784°N, 80.8378°E)
Time: 18:32:52
(UTC+00:00)

Cosmos 1709 Rocket - Pass Details

Date: 19 May 2025
Orbit: 948 x 1000 km, 82.9° (Epoch: 22 June)

Event Time Altitude Azimuth Distance (km) Brightness Sun altitude
Rises 13:43:19 0° 6° (N) 3,709 7.3 -10.1°
Reaches altitude 10° 13:45:58 10° 13° (NNE) 2,762 6.5 -10.7°
Maximum altitude 13:52:00 45° 84° (E) 1,338 4.4 -12.0°
Drops below altitude 10° 13:57:59 10° 156° (SSE) 2,757 5.9 -13.3°
Enters shadow 13:58:32 - 157° (SSE) 2,948 6.1 -13.4°
